Regional Weather Roundup
Issued by NWS Sterling, VA

Home | Current Version | Previous Version | Text Only | Print | Product List | Glossary Off
Versions: 1 2 3 4 5 6 7 8 9 10 11 12 13 14 15 16 17 18 19 20 21 22 23 24 25 26 27 28 29 30 31 32 33 34 35 36 37 38 39 40 41 42 43 44 45 46 47 48 49 50

000
ASUS41 KLWX 291210
RWRLWX

REGIONAL WEATHER ROUNDUP
NATIONAL WEATHER SERVICE BALTIMORE MD/WASHINGTON DC
800 AM EDT SAT AUG 29 2015

Note: "FAIR" indicates few or no clouds below 12,000 feet
with no significant weather and/or obstructions to visibility.
 TC=TEMPERATURE CELSIUS

 * =Non NWS site. Station does not report precipitation (e.g. rain,
    snow, etc.), thunder, or fog.

DCZ001-MDZ009-015-VAZ040>042-051-053>054-291300-
WASHINGTON METRO

CITY           SKY/WX    TMP DP  RH WIND       PRES   REMARKS
WASHINGTON NAT PTSUNNY   71  63  75 S7        30.22R
DULLES         MOSUNNY   67  60  78 S5        30.21R
ANDREWS AFB    SUNNY     69  61  74 S8        30.22R
FT BELVOIR     SUNNY     62  61  96 CALM      30.22R
QUANTICO       MOSUNNY   69  61  75 SW5       30.23R
COLLEGE PARK*  MOSUNNY   63  63 100 CALM      30.21R
LEESBURG*      SUNNY     66  64  94 CALM      30.23R
MANASSAS*      SUNNY     64  63  94 CALM      30.22R
GAITHERSBURG*  MOSUNNY   66  59  77 S5        30.26R

$$

MDZ006>007-011-014-291300-
BALTIMORE METRO

CITY           SKY/WX    TMP DP  RH WIND       PRES   REMARKS
BWI AIRPORT    PTSUNNY   65  60  84 CALM      30.21R
MD SCIENCE CTR   N/A     71  60  68 MISG      30.22R
MARTIN STATE   SUNNY     64  64 100 CALM      30.23R
ANNAPOLIS      SUNNY     70  60  70 CALM      30.21R
FORT MEADE*    SUNNY     57  55  94 CALM      30.24R

$$

MDZ012-015-019>023-291300-
MARYLAND EASTERN SHORE

CITY           SKY/WX    TMP DP  RH WIND       PRES   REMARKS
OCEAN CITY     SUNNY     67  61  81 CALM      30.23R
SALISBURY      MOSUNNY   62  58  86 CALM      30.23R
BAY BRIDGE AP*   N/A     72  61  68 CALM      30.22R
CAMBRIDGE*     SUNNY     63  59  88 CALM      30.22R
EASTON*        MOSUNNY   66  66 100 CALM      30.26R

$$

MDZ017>025-291300-
SOUTHERN MARYLAND

CITY           SKY/WX    TMP DP  RH WIND       PRES   REMARKS
PATUXENT RIVER MOSUNNY   70  64  81 CALM      30.23R
ST INIGOES     MOSUNNY   67  65  93 CALM      30.22R
LEONARDTOWN*   MOSUNNY   64  61  88 CALM      30.24R

$$

MDZ003>005-291300-
NORTH CENTRAL MARYLAND

CITY           SKY/WX    TMP DP  RH WIND       PRES   REMARKS
FREDERICK*     SUNNY     61  61 100 CALM      30.24R
HAGERSTOWN APT SUNNY     65  59  81 CALM      30.21R
WESTMINSTER*   SUNNY     68  59  73 S8        30.21S

$$

MDZ501>502-291300-
WESTERN MARYLAND

CITY           SKY/WX    TMP DP  RH WIND       PRES   REMARKS
OAKLAND*       MOSUNNY   59  55  88 SW6       30.27R
CUMBERLAND*    MOSUNNY   61  57  88 NE3       30.26R

$$

VAZ025>031-291300-
SHENANDOAH VALLEY

CITY           SKY/WX    TMP DP  RH WIND       PRES   REMARKS
WINCHESTER*    SUNNY     64  61  88 SW3       30.21R
FRONT ROYAL*   FAIR      64  61  88 S5        30.20R
LURAY*         FAIR      61  61 100 CALM      30.23R FOG
NEW MARKET*    FAIR      59  58  96 CALM      30.23R
STAUNTON*      SUNNY     64  61  90 CALM      30.27R
WAYNESBORO*    FAIR      64  60  86 CALM      30.26R

$$

WVZ021-048>050-054>055-291300-
EASTERN WEST VIRGINIA PANHANDLE

CITY           SKY/WX    TMP DP  RH WIND       PRES   REMARKS
MARTINSBURG    SUNNY     61  59  93 CALM      30.21R FOG
PETERSBURG*    SUNNY     57  56  96 CALM      30.23S FOG

$$

VAZ036>039-050-291300-
CENTRAL FOOTHILLS

CITY           SKY/WX    TMP DP  RH WIND       PRES   REMARKS
CHARLOTTESVILL SUNNY     64  61  90 CALM      30.23R
CULPEPER*      SUNNY     62  62  97 CALM      30.22S
ORANGE*        SUNNY     66  61  82 S5        30.24R
GORDONSVILLE*  FAIR      63  61  93 CALM      30.22R
WARRENTON*     FAIR      66  63  89 CALM      30.22R

$$

VAZ055>057-291300-
NORTH AND CENTRAL PIEDMONT

CITY           SKY/WX    TMP DP  RH WIND       PRES   REMARKS
FREDERICKSBRG* SUNNY     66  64  92 CALM      30.22R
STAFFORD*      SUNNY     63  60  91 CALM      30.26R

$$

NCZ024-NYZ072-PAZ021-071-VAZ022-071-291300-
OTHER REGIONAL OBSERVATIONS

CITY           SKY/WX    TMP DP  RH WIND       PRES   REMARKS
NEW YORK CITY  SUNNY     69  55  60 CALM      30.24R
PHILADELPHIA   MOSUNNY   70  58  65 CALM      30.23R
PITTSBURGH     PTSUNNY   58  52  80 CALM      30.19R
ROANOKE        CLOUDY    66  61  84 CALM      30.27R
RICHMOND       PTSUNNY   65  61  87 CALM      30.24R
RALEIGH        PTSUNNY   64  62  93 CALM      30.24R

$$

ANZ530>537-291300-
MARINE OBSERVATIONS

STATION/POSITION TIME  TEMP    WIND        PRES
                       AIR SEA DIR/SP/G
                 (UTC) (F)     (DEG/KT/KT) (MB)
THOMAS PT LIGHT  NOT AVBL

$$



USA.gov is the U.S. government's official web portal to all federal, state and local government web resources and services.